Location: La Pernelle
(49.6188°N, 1.2999°W)
Time: 14:20:19
(UTC+00:00)

Cosmos 1850 Rocket - Pass Details

Date: 12 June 2021
Orbit: 754 x 785 km, 74.0° (Epoch: 30 July)

Event Time Altitude Azimuth Distance (km) Brightness Sun altitude
Rises 21:46:46 0° 336° (NNW) 3,282 9.3 -10.9°
Reaches altitude 10° 21:49:10 10° 338° (NNW) 2,347 8.0 -11.2°
Maximum altitude 21:54:31 80° 65° (ENE) 796 4.1 -11.6°
Enters shadow 21:58:42 17° 152° (SSE) 1,901 5.4 -11.9°
